DLH6UV EDDM-EDDH

Flight info

Callsign DLH6UV
Flight time 0h 54m
Altitude 36000
Route INPUD2N/26R INPUD Y102 UPALA M726 NARUS DCT ABGUS DCT DIRBO/N0345F230 T902 RARUP RARUP6A
Aircraft A320/M-SDE2E3FGIJ1LORWXYZ/HB1

Departure

Time 2026-05-07 20:07
Airport Munich Airport (EDDM)

Arrival

Time 2026-05-07 21:02
Airport Hamburg Helmut Schmidt Airport (EDDH)
Time Latitude Longitude Altitude Speed Heading
2026-05-07 19:33 48.35411 11.79319 1470 ft 0 kts 270°
2026-05-07 19:45 48.35411 11.79321 1485 ft 1 kts 270°
2026-05-07 19:45 48.35410 11.79359 1483 ft 4 kts 270°
2026-05-07 19:45 48.35410 11.79400 1477 ft 4 kts 271°
2026-05-07 19:46 48.35405 11.79437 1474 ft 3 kts 303°
2026-05-07 19:46 48.35387 11.79463 1476 ft 4 kts 342°
2026-05-07 19:46 48.35365 11.79469 1480 ft 4 kts 353°
2026-05-07 19:46 48.35360 11.79470 1480 ft 0 kts 353°
2026-05-07 19:53 48.35361 11.79470 1485 ft 2 kts 353°
2026-05-07 19:54 48.35376 11.79467 1476 ft 0 kts 353°
2026-05-07 19:54 48.35382 11.79466 1480 ft 2 kts 353°
2026-05-07 19:54 48.35441 11.79456 1484 ft 17 kts 353°
2026-05-07 19:54 48.35576 11.79432 1473 ft 22 kts 353°
2026-05-07 19:55 48.35729 11.79406 1482 ft 16 kts 353°
2026-05-07 19:55 48.35853 11.79384 1481 ft 13 kts 353°
2026-05-07 19:55 48.35946 11.79341 1485 ft 15 kts 340°
2026-05-07 19:55 48.36013 11.79330 1485 ft 5 kts 354°
2026-05-07 19:56 48.36022 11.79328 1485 ft 0 kts 354°
2026-05-07 19:56 48.36056 11.79323 1478 ft 11 kts 354°
2026-05-07 19:56 48.36147 11.79306 1480 ft 12 kts 352°
2026-05-07 19:56 48.36208 11.79369 1483 ft 12 kts 82°
2026-05-07 19:57 48.36216 11.79499 1479 ft 14 kts 83°
2026-05-07 19:57 48.36230 11.79690 1485 ft 21 kts 83°
2026-05-07 19:57 48.36248 11.79921 1483 ft 23 kts 83°
2026-05-07 19:57 48.36268 11.80168 1477 ft 25 kts 83°
2026-05-07 19:58 48.36285 11.80397 1482 ft 23 kts 84°
2026-05-07 19:58 48.36303 11.80643 1485 ft 25 kts 83°
2026-05-07 19:58 48.36325 11.80907 1482 ft 26 kts 83°
2026-05-07 19:58 48.36346 11.81188 1485 ft 28 kts 84°
2026-05-07 19:59 48.36368 11.81475 1480 ft 26 kts 83°
2026-05-07 19:59 48.36387 11.81729 1485 ft 20 kts 83°
2026-05-07 19:59 48.36398 11.81897 1485 ft 13 kts 97°
2026-05-07 19:59 48.36429 11.82004 1482 ft 12 kts 17°
2026-05-07 20:00 48.36520 11.81990 1485 ft 14 kts 353°
2026-05-07 20:00 48.36560 11.81983 1485 ft 0 kts 354°
2026-05-07 20:05 48.36581 11.81980 1483 ft 6 kts 354°
2026-05-07 20:06 48.36624 11.81973 1482 ft 5 kts 354°
2026-05-07 20:06 48.36660 11.81967 1485 ft 7 kts 353°
2026-05-07 20:06 48.36672 11.81898 1475 ft 9 kts 263°
2026-05-07 20:06 48.36654 11.81663 1485 ft 55 kts 263°
2026-05-07 20:07 48.36583 11.80706 1486 ft 126 kts 264°
2026-05-07 20:07 48.36474 11.79126 1600 ft 168 kts 265°
2026-05-07 20:07 48.36385 11.77441 2419 ft 163 kts 266°
2026-05-07 20:07 48.36258 11.75698 3073 ft 173 kts 264°
2026-05-07 20:08 48.36106 11.73792 3489 ft 194 kts 263°
2026-05-07 20:08 48.35931 11.71633 3876 ft 222 kts 263°
2026-05-07 20:08 48.35736 11.69277 4645 ft 231 kts 264°
2026-05-07 20:08 48.35879 11.66895 5646 ft 234 kts 292°
2026-05-07 20:09 48.36934 11.64974 6294 ft 256 kts 327°
2026-05-07 20:09 48.38692 11.64092 6939 ft 273 kts 347°
2026-05-07 20:09 48.40583 11.63703 7961 ft 276 kts 352°
2026-05-07 20:10 48.44495 11.63126 9821 ft 288 kts 349°
2026-05-07 20:10 48.46490 11.62724 10723 ft 291 kts 348°
2026-05-07 20:10 48.48493 11.62245 11629 ft 293 kts 346°
2026-05-07 20:10 48.50512 11.61692 12549 ft 296 kts 346°
2026-05-07 20:11 48.52549 11.61098 13441 ft 300 kts 345°
2026-05-07 20:11 48.54605 11.60482 14268 ft 304 kts 345°
2026-05-07 20:11 48.56688 11.59834 15037 ft 306 kts 342°
2026-05-07 20:11 48.58740 11.58784 15461 ft 321 kts 336°
2026-05-07 20:12 48.60899 11.57532 15630 ft 344 kts 335°
2026-05-07 20:12 48.63205 11.56179 15767 ft 366 kts 336°
2026-05-07 20:12 48.65647 11.54749 15894 ft 387 kts 336°
2026-05-07 20:12 48.68282 11.53687 16023 ft 408 kts 349°
2026-05-07 20:13 48.71150 11.53144 16250 ft 421 kts 350°
2026-05-07 20:13 48.74072 11.52633 16748 ft 426 kts 351°
2026-05-07 20:13 48.76945 11.52154 17326 ft 427 kts 351°
2026-05-07 20:13 48.79921 11.51666 17868 ft 431 kts 351°
2026-05-07 20:14 48.82918 11.51166 18378 ft 434 kts 350°
2026-05-07 20:14 48.85933 11.50648 18846 ft 437 kts 350°
2026-05-07 20:14 48.88960 11.50123 19298 ft 440 kts 350°
2026-05-07 20:14 48.92010 11.49590 19746 ft 442 kts 350°
2026-05-07 20:15 48.95072 11.49056 20188 ft 445 kts 350°
2026-05-07 20:15 48.98158 11.48519 20619 ft 447 kts 351°
2026-05-07 20:15 49.01263 11.47982 21015 ft 450 kts 351°
2026-05-07 20:15 49.04383 11.47440 21416 ft 453 kts 351°
2026-05-07 20:16 49.07519 11.46893 21816 ft 455 kts 351°
2026-05-07 20:16 49.10677 11.46344 22202 ft 458 kts 351°
2026-05-07 20:16 49.13860 11.45790 22582 ft 460 kts 351°
2026-05-07 20:16 49.17041 11.45234 22960 ft 463 kts 351°
2026-05-07 20:17 49.20258 11.44670 23323 ft 465 kts 351°
2026-05-07 20:17 49.23484 11.44104 23656 ft 468 kts 351°
2026-05-07 20:17 49.26726 11.43533 23947 ft 470 kts 351°
2026-05-07 20:17 49.29981 11.42958 24240 ft 472 kts 351°
2026-05-07 20:18 49.33250 11.42381 24530 ft 474 kts 351°
2026-05-07 20:18 49.36534 11.41804 24821 ft 475 kts 351°
2026-05-07 20:18 49.39785 11.41232 25230 ft 474 kts 351°
2026-05-07 20:18 49.43092 11.40647 25658 ft 472 kts 352°
2026-05-07 20:19 49.46325 11.40075 26073 ft 471 kts 352°
2026-05-07 20:19 49.49555 11.39503 26510 ft 469 kts 352°
2026-05-07 20:19 49.52794 11.38927 26964 ft 467 kts 351°
2026-05-07 20:19 49.56017 11.38350 27417 ft 466 kts 351°
2026-05-07 20:20 49.59236 11.37773 27877 ft 464 kts 351°
2026-05-07 20:20 49.62440 11.37199 28416 ft 460 kts 351°
2026-05-07 20:20 49.65603 11.36633 29028 ft 457 kts 352°
2026-05-07 20:20 49.68766 11.36066 29359 ft 459 kts 352°
2026-05-07 20:21 49.71942 11.35500 29768 ft 459 kts 352°
2026-05-07 20:21 49.75116 11.34934 30203 ft 458 kts 352°
2026-05-07 20:21 49.78274 11.34368 30584 ft 457 kts 352°
2026-05-07 20:21 49.81435 11.33798 30939 ft 457 kts 352°
2026-05-07 20:22 49.84600 11.33225 31284 ft 457 kts 351°
2026-05-07 20:22 49.87749 11.32651 31632 ft 457 kts 352°
2026-05-07 20:22 49.90918 11.32074 31951 ft 458 kts 352°
2026-05-07 20:22 49.94082 11.31504 32297 ft 458 kts 352°
2026-05-07 20:23 49.97249 11.30937 32650 ft 458 kts 352°
2026-05-07 20:23 50.00414 11.30366 33013 ft 458 kts 351°
2026-05-07 20:23 50.03575 11.29794 33357 ft 458 kts 351°
2026-05-07 20:23 50.06731 11.29224 33710 ft 457 kts 351°
2026-05-07 20:24 50.09898 11.28652 34072 ft 457 kts 351°
2026-05-07 20:24 50.13067 11.28071 34362 ft 457 kts 351°
2026-05-07 20:24 50.16189 11.27496 34637 ft 458 kts 351°
2026-05-07 20:24 50.19361 11.26915 34922 ft 458 kts 351°
2026-05-07 20:25 50.22536 11.26338 35190 ft 459 kts 351°
2026-05-07 20:25 50.25709 11.25764 35462 ft 460 kts 351°
2026-05-07 20:25 50.28896 11.25183 35722 ft 460 kts 351°
2026-05-07 20:25 50.32090 11.24594 35972 ft 461 kts 351°
2026-05-07 20:26 50.35281 11.24005 36080 ft 462 kts 351°
2026-05-07 20:26 50.41671 11.22829 36087 ft 462 kts 351°
2026-05-07 20:27 50.48022 11.21653 36089 ft 462 kts 351°
2026-05-07 20:27 50.54401 11.20459 36092 ft 462 kts 351°
2026-05-07 20:28 50.60780 11.19274 36092 ft 461 kts 351°
2026-05-07 20:28 50.67159 11.18099 36101 ft 461 kts 352°
2026-05-07 20:29 50.73561 11.17246 36106 ft 462 kts 354°
2026-05-07 20:29 50.79992 11.16703 36118 ft 463 kts 355°
2026-05-07 20:30 50.86427 11.16145 36121 ft 463 kts 354°
2026-05-07 20:30 50.92857 11.15465 36128 ft 463 kts 354°
2026-05-07 20:31 50.99275 11.14747 36140 ft 462 kts 354°
2026-05-07 20:31 51.05693 11.14058 36145 ft 462 kts 354°
2026-05-07 20:32 51.12123 11.13398 36131 ft 462 kts 354°
2026-05-07 20:32 51.18520 11.12512 36129 ft 462 kts 352°
2026-05-07 20:33 51.24872 11.11344 36124 ft 462 kts 351°
2026-05-07 20:33 51.31257 11.10138 36129 ft 462 kts 352°
2026-05-07 20:34 51.37649 11.09017 36119 ft 462 kts 352°
2026-05-07 20:34 51.44051 11.07929 36118 ft 462 kts 352°
2026-05-07 20:35 51.50442 11.06836 36129 ft 462 kts 352°
2026-05-07 20:35 51.56834 11.05711 36133 ft 462 kts 352°
2026-05-07 20:36 51.63218 11.04584 36130 ft 462 kts 352°
2026-05-07 20:36 51.69603 11.03465 36126 ft 462 kts 352°
2026-05-07 20:37 51.75990 11.02343 36120 ft 461 kts 352°
2026-05-07 20:37 51.82378 11.01221 36130 ft 462 kts 352°
2026-05-07 20:38 51.88770 11.00098 36120 ft 462 kts 352°
2026-05-07 20:38 51.94082 10.99151 36127 ft 462 kts 352°
2026-05-07 20:39 52.00472 10.98004 36124 ft 462 kts 352°
2026-05-07 20:39 52.06861 10.96861 36124 ft 462 kts 352°
2026-05-07 20:40 52.13253 10.95721 36134 ft 462 kts 352°
2026-05-07 20:40 52.19649 10.94577 35875 ft 462 kts 352°
2026-05-07 20:40 52.22843 10.94001 35630 ft 461 kts 352°
2026-05-07 20:41 52.26037 10.93422 34954 ft 463 kts 353°
2026-05-07 20:41 52.29239 10.92838 34122 ft 464 kts 353°
2026-05-07 20:41 52.32463 10.92252 33152 ft 465 kts 353°
2026-05-07 20:41 52.35672 10.91672 32208 ft 464 kts 353°
2026-05-07 20:42 52.38880 10.91097 31299 ft 461 kts 353°
2026-05-07 20:42 52.42056 10.90528 30414 ft 458 kts 353°
2026-05-07 20:42 52.45218 10.89958 29441 ft 454 kts 353°
2026-05-07 20:42 52.48308 10.89400 28453 ft 438 kts 353°
2026-05-07 20:43 52.51289 10.88815 27507 ft 426 kts 349°
2026-05-07 20:43 52.54159 10.87332 26584 ft 442 kts 333°
2026-05-07 20:43 52.56745 10.84483 25693 ft 455 kts 316°
2026-05-07 20:43 52.58973 10.80718 24823 ft 465 kts 313°
2026-05-07 20:44 52.61204 10.76795 24002 ft 467 kts 312°
2026-05-07 20:44 52.63393 10.72906 23108 ft 461 kts 312°
2026-05-07 20:44 52.65585 10.69071 22178 ft 456 kts 315°
2026-05-07 20:44 52.67982 10.65702 21287 ft 452 kts 319°
2026-05-07 20:45 52.70369 10.62444 20426 ft 447 kts 319°
2026-05-07 20:45 52.72748 10.59189 19583 ft 443 kts 319°
2026-05-07 20:45 52.75106 10.55953 18752 ft 439 kts 319°
2026-05-07 20:45 52.77441 10.52744 17883 ft 435 kts 319°
2026-05-07 20:46 52.79756 10.49562 16980 ft 432 kts 320°
2026-05-07 20:46 52.82064 10.46386 16095 ft 429 kts 320°
2026-05-07 20:46 52.84345 10.43244 15220 ft 426 kts 320°
2026-05-07 20:46 52.86609 10.40126 14402 ft 422 kts 320°
2026-05-07 20:47 52.88863 10.37018 13540 ft 418 kts 320°
2026-05-07 20:47 52.91040 10.34012 12646 ft 397 kts 320°
2026-05-07 20:47 52.93113 10.31146 11797 ft 379 kts 320°
2026-05-07 20:47 52.95092 10.28406 11153 ft 365 kts 320°
2026-05-07 20:48 52.97021 10.25726 10644 ft 357 kts 320°
2026-05-07 20:48 52.98903 10.23108 10134 ft 351 kts 320°
2026-05-07 20:48 53.00765 10.20517 9579 ft 346 kts 320°
2026-05-07 20:48 53.02589 10.17973 9019 ft 341 kts 320°
2026-05-07 20:49 53.04389 10.15457 8466 ft 336 kts 321°
2026-05-07 20:49 53.06153 10.12993 7920 ft 323 kts 321°
2026-05-07 20:49 53.07828 10.10653 7391 ft 306 kts 321°
2026-05-07 20:49 53.09419 10.08429 6875 ft 293 kts 321°
2026-05-07 20:50 53.10948 10.06289 6348 ft 281 kts 322°
2026-05-07 20:50 53.12412 10.04236 6061 ft 272 kts 322°
2026-05-07 20:50 53.13872 10.02190 5919 ft 273 kts 322°
2026-05-07 20:50 53.15322 10.00155 5795 ft 273 kts 322°
2026-05-07 20:51 53.16772 9.98118 5663 ft 272 kts 322°
2026-05-07 20:51 53.18220 9.96080 5532 ft 272 kts 322°
2026-05-07 20:51 53.19664 9.94045 5403 ft 272 kts 322°
2026-05-07 20:51 53.21104 9.92014 5272 ft 266 kts 322°
2026-05-07 20:52 53.22480 9.90069 5141 ft 253 kts 322°
2026-05-07 20:52 53.23788 9.88219 5013 ft 242 kts 323°
2026-05-07 20:52 53.25066 9.86411 4895 ft 240 kts 323°
2026-05-07 20:52 53.26339 9.84609 4761 ft 239 kts 323°
2026-05-07 20:53 53.27612 9.82808 4631 ft 239 kts 323°
2026-05-07 20:53 53.28877 9.81018 4490 ft 239 kts 323°
2026-05-07 20:53 53.30146 9.79219 4368 ft 239 kts 322°
2026-05-07 20:53 53.31411 9.77423 4213 ft 237 kts 322°
2026-05-07 20:54 53.32649 9.75666 3884 ft 236 kts 322°
2026-05-07 20:54 53.33899 9.73890 3527 ft 236 kts 322°
2026-05-07 20:54 53.35151 9.72119 3174 ft 235 kts 321°
2026-05-07 20:54 53.36393 9.70354 3012 ft 234 kts 321°
2026-05-07 20:55 53.37640 9.68572 3009 ft 236 kts 321°
2026-05-07 20:55 53.38911 9.66829 3013 ft 236 kts 330°
2026-05-07 20:55 53.40392 9.65713 3014 ft 233 kts 342°
2026-05-07 20:55 53.41926 9.64830 3012 ft 233 kts 344°
2026-05-07 20:56 53.43498 9.64246 3013 ft 230 kts
2026-05-07 20:56 53.45050 9.64567 3006 ft 218 kts 21°
2026-05-07 20:56 53.46342 9.65642 3008 ft 200 kts 39°
2026-05-07 20:56 53.47300 9.67205 3008 ft 185 kts 53°
2026-05-07 20:57 53.48102 9.68806 3008 ft 175 kts 53°
2026-05-07 20:57 53.48878 9.70354 3008 ft 172 kts 53°
2026-05-07 20:57 53.49641 9.71881 3010 ft 170 kts 53°
2026-05-07 20:57 53.50403 9.73405 3011 ft 170 kts 53°
2026-05-07 20:58 53.51230 9.75070 3027 ft 210 kts 53°
2026-05-07 20:58 53.52166 9.76944 2989 ft 211 kts 52°
2026-05-07 20:58 53.53076 9.78861 2765 ft 210 kts 55°
2026-05-07 20:58 53.53962 9.80829 2378 ft 208 kts 54°
2026-05-07 20:59 53.54890 9.82602 2187 ft 193 kts 49°
2026-05-07 20:59 53.55759 9.84196 1969 ft 180 kts 52°
2026-05-07 20:59 53.56517 9.85706 1853 ft 157 kts 52°
2026-05-07 20:59 53.57194 9.87032 1545 ft 144 kts 53°
2026-05-07 21:00 53.57811 9.88317 1272 ft 137 kts 53°
2026-05-07 21:00 53.58398 9.89528 1061 ft 131 kts 51°
2026-05-07 21:00 53.58972 9.90652 907 ft 122 kts 52°
2026-05-07 21:00 53.59478 9.91677 761 ft 113 kts 53°
2026-05-07 21:01 53.60005 9.92777 656 ft 125 kts 50°
2026-05-07 21:01 53.60603 9.93906 543 ft 132 kts 52°
2026-05-07 21:01 53.61198 9.95120 334 ft 136 kts 49°
2026-05-07 21:01 53.61811 9.96351 131 ft 137 kts 49°
2026-05-07 21:02 53.62383 9.97501 49 ft 116 kts 50°
2026-05-07 21:02 53.62715 9.98195 52 ft 42 kts 55°